Zurück zum Katalog

COSMOS 1275 DEB

AktivPO
NORAD 13026·DEBRIS·🇷🇺 Russia

Gestartet Jun 4, 1981 von Plesetsk Cosmodrome

Loading…

Nächste Überflüge (nächste 24 Stunden)

TLE

AktuellSource: Space-Track

Epoche: Sep 14, 2026, 07:09 UTC

1 13026U 81053EX  26257.29822760  .00017085  00000-0  16014-2 0  9992
2 13026  82.9085  99.8119 0002580 207.1401 152.9686 14.93929602308893

Verfolge COSMOS 1275 DEB in Echtzeit mit AllMySat

Download on the App Store